TimeEST,TemperatureF,Dew PointF,Humidity,Sea Level PressureIn,VisibilityMPH,Wind Direction,Wind SpeedMPH,Gust SpeedMPH,PrecipitationIn,Events,Conditions,WindDirDegrees,DateUTC
12:32 AM,42.1,36.0,79,30.24,10.0,NNE,10.4,-,N/A,,Scattered Clouds,20,2014-02-04 05:32:00
12:44 AM,42.1,36.0,79,30.24,10.0,NNE,15.0,-,N/A,,Mostly Cloudy,20,2014-02-04 05:44:00
12:56 AM,42.1,36.0,79,30.25,10.0,NNE,13.8,-,N/A,,Mostly Cloudy,20,2014-02-04 05:56:00
1:56 AM,42.1,36.0,79,30.26,10.0,NE,9.2,-,N/A,,Overcast,40,2014-02-04 06:56:00
2:40 AM,42.1,36.0,79,30.27,10.0,NNE,12.7,-,N/A,,Overcast,20,2014-02-04 07:40:00
2:56 AM,41.0,36.0,82,30.27,10.0,NNE,13.8,-,N/A,,Overcast,20,2014-02-04 07:56:00
3:56 AM,41.0,36.0,82,30.29,10.0,NNE,15.0,-,N/A,,Overcast,30,2014-02-04 08:56:00
4:56 AM,39.9,36.0,86,30.30,10.0,NE,9.2,-,N/A,,Overcast,50,2014-02-04 09:56:00
5:40 AM,39.0,36.0,89,30.30,10.0,NE,15.0,-,N/A,,Overcast,50,2014-02-04 10:40:00
5:56 AM,39.0,35.1,86,30.32,10.0,NE,16.1,-,N/A,,Overcast,40,2014-02-04 10:56:00
6:56 AM,39.0,35.1,86,30.34,10.0,North,8.1,-,N/A,,Overcast,360,2014-02-04 11:56:00
7:56 AM,39.0,36.0,89,30.35,8.0,NNE,9.2,-,N/A,,Overcast,30,2014-02-04 12:56:00
8:32 AM,39.0,36.0,89,30.37,1.5,North,9.2,-,N/A,,Overcast,350,2014-02-04 13:32:00
8:56 AM,39.0,37.0,93,30.36,1.5,NNE,9.2,-,N/A,,Overcast,20,2014-02-04 13:56:00
9:03 AM,39.0,37.0,93,30.34,1.5,NNE,10.4,-,N/A,,Overcast,20,2014-02-04 14:03:00
9:56 AM,39.9,37.0,89,30.36,1.5,NE,9.2,-,N/A,,Overcast,40,2014-02-04 14:56:00
10:45 AM,41.0,37.9,89,30.36,7.0,North,13.8,-,N/A,,Overcast,10,2014-02-04 15:45:00
10:56 AM,41.0,37.9,89,30.36,8.0,North,12.7,-,N/A,,Overcast,10,2014-02-04 15:56:00
11:56 AM,42.1,37.9,85,30.34,9.0,North,12.7,-,N/A,,Overcast,10,2014-02-04 16:56:00
12:56 PM,42.1,39.0,89,30.30,8.0,North,10.4,-,N/A,,Overcast,10,2014-02-04 17:56:00
1:56 PM,42.1,39.0,89,30.27,5.0,NNE,12.7,-,N/A,,Overcast,20,2014-02-04 18:56:00
2:56 PM,42.1,39.0,89,30.25,6.0,NNE,6.9,-,0.00,,Overcast,30,2014-02-04 19:56:00
3:56 PM,42.1,39.9,92,30.25,6.0,NNE,6.9,-,0.00,,Overcast,30,2014-02-04 20:56:00
4:56 PM,43.0,39.9,89,30.24,6.0,NNE,9.2,-,N/A,,Overcast,30,2014-02-04 21:56:00
5:56 PM,42.1,39.9,92,30.22,6.0,NE,10.4,-,N/A,,Overcast,50,2014-02-04 22:56:00
6:56 PM,43.0,39.9,89,30.22,6.0,NE,4.6,-,N/A,,Overcast,40,2014-02-04 23:56:00
7:43 PM,42.1,39.9,92,30.20,2.5,North,4.6,-,0.03,Rain,Light Rain,10,2014-02-05 00:43:00
7:53 PM,42.8,41.0,93,30.19,3.0,NNE,4.6,-,0.04,Rain,Light Rain,20,2014-02-05 00:53:00
7:56 PM,42.1,41.0,96,30.20,4.0,NNE,5.8,-,0.04,Rain,Light Rain,20,2014-02-05 00:56:00
8:12 PM,42.1,41.0,96,30.19,4.0,North,4.6,-,0.00,Rain,Light Rain,10,2014-02-05 01:12:00
8:56 PM,42.1,41.0,96,30.18,2.5,NNE,5.8,-,0.01,Rain,Light Rain,30,2014-02-05 01:56:00
9:33 PM,42.1,41.0,96,30.16,3.0,NNE,3.5,-,0.04,Rain,Light Rain,20,2014-02-05 02:33:00
9:46 PM,42.1,41.0,96,30.15,2.0,North,4.6,-,0.07,Rain,Rain,360,2014-02-05 02:46:00
9:56 PM,42.1,41.0,96,30.15,2.5,North,5.8,-,0.08,Rain,Light Rain,10,2014-02-05 02:56:00
10:11 PM,42.1,41.0,96,30.12,2.5,NNE,6.9,-,0.01,Rain,Light Rain,20,2014-02-05 03:11:00
10:20 PM,42.1,41.0,96,30.12,5.0,NNE,5.8,-,0.01,Rain,Light Rain,30,2014-02-05 03:20:00
10:38 PM,43.0,42.1,97,30.12,5.0,Calm,Calm,-,0.01,,Overcast,0,2014-02-05 03:38:00
11:02 PM,43.0,42.1,97,30.10,1.8,East,9.2,-,0.03,Rain,Rain,90,2014-02-05 04:02:00
11:05 PM,43.0,42.1,97,30.09,1.8,East,5.8,-,0.04,Rain,Rain,90,2014-02-05 04:05:00
11:12 PM,43.0,42.1,97,30.10,2.0,NE,5.8,-,0.06,Rain,Rain,40,2014-02-05 04:12:00
11:18 PM,43.0,42.1,97,30.08,2.5,East,11.5,-,0.07,Rain,Light Rain,90,2014-02-05 04:18:00
11:26 PM,43.0,42.1,97,30.09,4.0,Variable,3.5,-,0.07,Rain,Light Rain,0,2014-02-05 04:26:00
11:29 PM,43.0,43.0,100,30.09,4.0,North,3.5,-,0.07,Rain,Light Rain,10,2014-02-05 04:29:00
11:42 PM,43.0,42.1,97,30.09,1.8,WNW,9.2,-,0.13,Rain,Heavy Rain,290,2014-02-05 04:42:00
11:49 PM,43.0,42.1,97,30.08,3.0,NW,5.8,-,0.14,Rain,Light Rain,320,2014-02-05 04:49:00
11:56 PM,43.0,42.1,97,30.08,8.0,NNW,6.9,-,0.14,Rain,Light Rain,340,2014-02-05 04:56:00